Regional Weather Roundup
Issued by NWS Green Bay, WI

Home | Current Version | Previous Version | Text Only | Print | Product List | Glossary On
Versions: 1 2 3 4 5 6 7 8 9 10 11 12 13 14 15 16 17 18 19 20 21 22 23 24 25 26 27 28 29 30 31 32 33 34 35 36 37 38 39 40 41 42 43 44 45 46 47 48 49 50
000
ASUS43 KGRB 051611
RWRGRB

NORTH-CENTRAL AND NORTHEAST WISCONSIN REGIONAL WEATHER ROUNDUP
NATIONAL WEATHER SERVICE GREEN BAY WI
1100 AM CDT THU MAY 05 2016

WIZ005-009-010>012-018-019-051700-
NORTH CENTRAL WISCONSIN

CITY           SKY/WX    TMP DP  RH WIND       PRES   REMARKS
IRONWOOD       SUNNY     57  30  35 SW9       29.97F
MANITOWISH WTR SUNNY     56  29  35 W9        30.01F
ARBOR VITAE    SUNNY     57  30  35 W7        30.02F
EAGLE RIVER    SUNNY     56  26  30 N7        30.01F
LAND O LAKES   SUNNY     56  26  31 W3        30.02F
RHINELANDER    SUNNY     56  28  34 NW7       30.03F
PHILLIPS       MOSUNNY   54  32  43 SW7       30.03F
ANTIGO         SUNNY     53  33  47 CALM      30.03F
TOMAHAWK       SUNNY     56  28  34 CALM      30.04F
MERRILL        SUNNY     54  34  46 NW7       30.05S
$$

WIZ013-073-051700-
NORTHEAST WISCONSIN

CITY           SKY/WX    TMP DP  RH WIND       PRES   REMARKS
IRON MOUNTAIN  SUNNY     55  34  45 VRB5      30.01S
MARINETTE      SUNNY     52  36  54 E8        30.05S
OCONTO         SUNNY     51  36  57 N7        30.04S
$$

WIZ017-030-035>037-045-051700-
CENTRAL WISCONSIN

CITY           SKY/WX    TMP DP  RH WIND       PRES   REMARKS
MEDFORD        SUNNY     53  36  52 W5        30.04F
WAUSAU         SUNNY     55  34  45 W5        30.03F
MOSINEE        SUNNY     54  36  50 NW5       30.05F
MARSHFIELD     SUNNY     57  35  43 W7        30.04F
WISC RAPIDS    SUNNY     56  33  42 NW7       30.06F
STEVENS POINT  SUNNY     53  35  49 SW6       30.05F
WAUPACA        SUNNY     56  35  46 CALM      30.05S
SHAWANO        SUNNY     55  36  49 SE3       30.05S
CLINTONVILLE   SUNNY     52  34  50 CALM      30.05S
WAUTOMA        SUNNY     54  35  48 S3        30.06S
$$

WIZ038-039-048-051-051700-
FOX VALLEY

CITY           SKY/WX    TMP DP  RH WIND       PRES   REMARKS
NWS GREEN BAY  SUNNY     53  37  54 E5        30.04F
APPLETON       SUNNY     48  34  57 CALM      30.04S
OSHKOSH        SUNNY     52  37  56 MISG      30.04F
FOND DU LAC    SUNNY     52  39  61 NE8       30.05S
$$

WIZ022-050-052-051700-
EAST CENTRAL WISCONSIN

CITY           SKY/WX    TMP DP  RH WIND       PRES   REMARKS
EPHRAIM        FAIR      45  33  64 N8        30.02S
STURGEON BAY   SUNNY     46  36  66 NW7       30.06S
MANITOWOC      SUNNY     52  38  58 VRB6G17   30.04S
SHEBOYGAN      SUNNY     53  39  59 N9        30.04R
$$

LMZ563-521-522-541>543-051700-
LAKESHORE

STATION/POSITION TIME  TEMP    WIND        PRES    VSBY  WAVE
                       AIR SEA DIR/SP/G                  HT/PER
                 (UTC) (F)     (DEG/KT/KT) (MB)    (MI)  (FT/S)
SHEBOYGAN LKSHOR 1600   43      20/ 10/ 11 1018.1R
KEWAUNEE LKSHORE 1500   46      50/  4/  6 1016.3R
ALGOMA MARINA    1515           90/ 10/ 11   N/A
NORTHPORT PIER   1500   40     310/  8/  9 1017.3S
N MID LAKE BUOY  1550   39 39  280/  6/  6 1016.9S         1/ 3
CHAMBERS ISLAND  1500   45      10/  3/  3 1017.6R
MENOMINEE LKSHOR 1500   43     110/  6/  7 1016.1R
$$




USA.gov is the U.S. government's official web portal to all federal, state and local government web resources and services.